| time (UTC) | temp F | wind direction | speed MPH | gust MPH | rain 1hr in | rain 24hr in | rain mn in | humidity % | barometer mb |
| 20260505050552 | 60 | 270 | 0.0 | 0.0 | 0.00 | 0.00 | 0.00 | 59 | 1020.4 |
| 20260505041520 | 62 | 285 | 0.0 | 0.0 | 0.00 | 0.00 | 0.00 | 56 | 1020.4 |
| 20260505041018 | 62 | 276 | 0.0 | 0.0 | 0.00 | 0.00 | 0.00 | 56 | 1020.5 |
| 20260505040515 | 62 | 271 | 0.0 | 0.0 | 0.00 | 0.00 | 0.00 | 55 | 1020.4 |
| 20260505040012 | 62 | 285 | 0.0 | 0.0 | 0.00 | 0.00 | 0.00 | 55 | 1020.4 |
| 20260505035508 | 62 | 287 | 0.0 | 0.0 | 0.00 | 0.00 | 0.00 | 55 | 1020.3 |
| 20260505035005 | 62 | 287 | 0.0 | 0.0 | 0.00 | 0.00 | 0.00 | 55 | 1020.5 |
| 20260505034501 | 62 | 286 | 0.0 | 0.0 | 0.00 | 0.00 | 0.00 | 55 | 1020.4 |
| 20260505033958 | 62 | 286 | 0.0 | 0.0 | 0.00 | 0.00 | 0.00 | 54 | 1020.6 |
| 20260505033455 | 63 | 298 | 0.0 | 0.0 | 0.00 | 0.00 | 0.00 | 54 | 1020.5 |
| 20260505032954 | 63 | 271 | 0.0 | 0.0 | 0.00 | 0.00 | 0.00 | 54 | 1020.7 |
| 20260505032451 | 63 | 269 | 0.0 | 0.0 | 0.00 | 0.00 | 0.00 | 53 | 1020.7 |
| 20260505031947 | 63 | 250 | 0.0 | 0.0 | 0.00 | 0.00 | 0.00 | 53 | 1020.6 |
| 20260505031444 | 63 | 271 | 0.0 | 0.0 | 0.00 | 0.00 | 0.00 | 53 | 1020.6 |
| 20260505030941 | 64 | 271 | 0.0 | 0.0 | 0.00 | 0.00 | 0.00 | 52 | 1020.7 |
| 20260505030437 | 64 | 271 | 0.0 | 0.0 | 0.00 | 0.00 | 0.00 | 52 | 1020.6 |
| 20260505025932 | 64 | 271 | 0.0 | 0.0 | 0.00 | 0.00 | 0.00 | 52 | 1020.6 |
| 20260505025430 | 64 | 270 | 0.0 | 0.0 | 0.00 | 0.00 | 0.00 | 52 | 1020.6 |
| 20260505024928 | 64 | 280 | 0.0 | 0.0 | 0.00 | 0.00 | 0.00 | 51 | 1020.5 |
| 20260505024425 | 65 | 271 | 0.0 | 0.0 | 0.00 | 0.00 | 0.00 | 51 | 1020.6 |
| 20260505023922 | 65 | 270 | 0.0 | 0.0 | 0.00 | 0.00 | 0.00 | 51 | 1020.5 |
| 20260505023419 | 66 | 271 | 0.0 | 0.0 | 0.00 | 0.00 | 0.00 | 50 | 1020.4 |
| 20260505022917 | 66 | 271 | 0.0 | 0.0 | 0.00 | 0.00 | 0.00 | 48 | 1020.7 |
| 20260505022414 | 67 | 251 | 0.0 | 0.0 | 0.00 | 0.00 | 0.00 | 46 | 1020.5 |
| 20260505021911 | 67 | 270 | 0.0 | 0.0 | 0.00 | 0.00 | 0.00 | 46 | 1020.3 |
| 20260505021407 | 68 | 271 | 0.0 | 0.0 | 0.00 | 0.00 | 0.00 | 45 | 1020.4 |
| 20260505020903 | 68 | 255 | 0.0 | 0.0 | 0.00 | 0.00 | 0.00 | 45 | 1020.4 |
| 20260505020359 | 68 | 261 | 0.0 | 0.0 | 0.00 | 0.00 | 0.00 | 45 | 1020.2 |
| 20260505015856 | 68 | 256 | 0.0 | 0.0 | 0.00 | 0.00 | 0.00 | 44 | 1020.2 |
| 20260505015353 | 68 | 259 | 0.0 | 0.0 | 0.00 | 0.00 | 0.00 | 45 | 1020.5 |
| 20260505014850 | 68 | 269 | 0.0 | 0.0 | 0.00 | 0.00 | 0.00 | 46 | 1020.2 |
| 20260505014347 | 69 | 271 | 0.0 | 0.0 | 0.00 | 0.00 | 0.00 | 46 | 1020.3 |
| 20260505013844 | 69 | 271 | 0.0 | 0.0 | 0.00 | 0.00 | 0.00 | 44 | 1020.2 |
| 20260505013341 | 69 | 271 | 0.0 | 0.0 | 0.00 | 0.00 | 0.00 | 45 | 1019.9 |
| 20260505012839 | 69 | 271 | 0.0 | 0.0 | 0.00 | 0.00 | 0.00 | 44 | 1020.1 |
| 20260505012337 | 69 | 271 | 0.0 | 0.0 | 0.00 | 0.00 | 0.00 | 43 | 1020.1 |
| 20260505011833 | 70 | 271 | 0.0 | 0.0 | 0.00 | 0.00 | 0.00 | 43 | 1020.0 |
| 20260505011330 | 70 | 271 | 0.0 | 0.0 | 0.00 | 0.00 | 0.00 | 42 | 1019.9 |
| 20260505010826 | 70 | 271 | 0.0 | 0.0 | 0.00 | 0.00 | 0.00 | 42 | 1019.8 |
| 20260505010322 | 70 | 271 | 0.0 | 0.0 | 0.00 | 0.00 | 0.00 | 42 | 1019.9 |
| 20260505005818 | 71 | 270 | 0.0 | 0.0 | 0.00 | 0.00 | 0.00 | 41 | 1019.9 |
| 20260505005315 | 71 | 269 | 0.0 | 0.0 | 0.00 | 0.00 | 0.00 | 41 | 1019.7 |
| 20260505004813 | 71 | 271 | 0.0 | 0.0 | 0.00 | 0.00 | 0.00 | 41 | 1019.7 |
| 20260505004308 | 71 | 201 | 0.0 | 0.0 | 0.00 | 0.00 | 0.00 | 40 | 1019.6 |
| 20260505003806 | 72 | 268 | 0.0 | 0.0 | 0.00 | 0.00 | 0.00 | 39 | 1019.8 |
| 20260505003303 | 72 | 270 | 0.0 | 0.0 | 0.00 | 0.00 | 0.00 | 39 | 1019.8 |
| 20260505002759 | 72 | 264 | 0.0 | 0.0 | 0.00 | 0.00 | 0.00 | 38 | 1019.6 |
| 20260505002257 | 73 | 256 | 0.0 | 0.0 | 0.00 | 0.00 | 0.00 | 38 | 1019.5 |
| 20260505001755 | 73 | 262 | 0.0 | 0.0 | 0.00 | 0.00 | 0.00 | 37 | 1019.5 |
| 20260505001252 | 73 | 248 | 0.0 | 0.0 | 0.00 | 0.00 | 0.00 | 37 | 1019.5 |
| 20260505000749 | 74 | 270 | 0.0 | 0.0 | 0.00 | 0.00 | 0.00 | 36 | 1019.5 |
| 20260505000247 | 74 | 263 | 0.0 | 0.0 | 0.00 | 0.00 | 0.00 | 36 | 1019.5 |
| 20260504235743 | 74 | 266 | 0.0 | 0.0 | 0.00 | 0.00 | 0.00 | 36 | 1019.5 |
| 20260504235239 | 74 | 260 | 0.0 | 0.0 | 0.00 | 0.00 | 0.00 | 36 | 1019.3 |
| 20260504234736 | 74 | 263 | 0.0 | 0.0 | 0.00 | 0.00 | 0.00 | 35 | 1019.4 |
| 20260504234234 | 75 | 265 | 0.0 | 0.0 | 0.00 | 0.00 | 0.00 | 35 | 1019.3 |
| 20260504233730 | 75 | 208 | 2.0 | 2.0 | 0.00 | 0.00 | 0.00 | 34 | 1019.3 |
| 20260504233226 | 75 | 261 | 0.0 | 0.0 | 0.00 | 0.00 | 0.00 | 34 | 1019.6 |
| 20260504232723 | 75 | 227 | 0.0 | 0.0 | 0.00 | 0.00 | 0.00 | 33 | 1019.6 |
| 20260504232220 | 76 | 268 | 1.0 | 2.0 | 0.00 | 0.00 | 0.00 | 33 | 1019.4 |
| 20260504231716 | 76 | 255 | 0.0 | 0.0 | 0.00 | 0.00 | 0.00 | 32 | 1019.5 |
| 20260504231213 | 76 | 204 | 0.0 | 0.0 | 0.00 | 0.00 | 0.00 | 31 | 1019.4 |
| 20260504230709 | 76 | 259 | 0.0 | 0.0 | 0.00 | 0.00 | 0.00 | 31 | 1019.5 |
| 20260504230208 | 76 | 220 | 0.0 | 0.0 | 0.00 | 0.00 | 0.00 | 30 | 1019.5 |
| 20260504225706 | 76 | 240 | 1.0 | 2.0 | 0.00 | 0.00 | 0.00 | 31 | 1019.5 |
| 20260504225202 | 76 | 237 | 3.0 | 3.0 | 0.00 | 0.00 | 0.00 | 30 | 1019.4 |
| 20260504224659 | 76 | 272 | 0.0 | 2.0 | 0.00 | 0.00 | 0.00 | 31 | 1019.5 |
| 20260504224156 | 77 | 249 | 1.0 | 2.0 | 0.00 | 0.00 | 0.00 | 31 | 1019.6 |
| 20260504223653 | 77 | 208 | 1.0 | 2.0 | 0.00 | 0.00 | 0.00 | 29 | 1019.5 |
| 20260504223148 | 77 | 187 | 1.0 | 2.0 | 0.00 | 0.00 | 0.00 | 29 | 1019.6 |
| 20260504222646 | 77 | 264 | 0.0 | 2.0 | 0.00 | 0.00 | 0.00 | 30 | 1019.7 |
| 20260504222142 | 77 | 252 | 2.0 | 3.0 | 0.00 | 0.00 | 0.00 | 30 | 1019.8 |
| 20260504221640 | 77 | 127 | 4.0 | 7.0 | 0.00 | 0.00 | 0.00 | 31 | 1019.6 |
| 20260504221137 | 77 | 233 | 3.0 | 3.0 | 0.00 | 0.00 | 0.00 | 31 | 1019.6 |
| 20260504220633 | 77 | 269 | 1.0 | 2.0 | 0.00 | 0.00 | 0.00 | 31 | 1019.6 |
| 20260504220131 | 77 | 257 | 2.0 | 2.0 | 0.00 | 0.00 | 0.00 | 31 | 1019.6 |
| 20260504215627 | 77 | 264 | 0.0 | 2.0 | 0.00 | 0.00 | 0.00 | 31 | 1019.7 |
| 20260504215125 | 77 | 229 | 2.0 | 2.0 | 0.00 | 0.00 | 0.00 | 29 | 1019.7 |
| 20260504214620 | 77 | 258 | 2.0 | 3.0 | 0.00 | 0.00 | 0.00 | 33 | 1019.5 |
| 20260504214117 | 77 | 261 | 1.0 | 2.0 | 0.00 | 0.00 | 0.00 | 30 | 1019.6 |
| 20260504213613 | 77 | 261 | 0.0 | 0.0 | 0.00 | 0.00 | 0.00 | 31 | 1019.4 |
| 20260504213110 | 77 | 260 | 2.0 | 3.0 | 0.00 | 0.00 | 0.00 | 31 | 1019.4 |
| 20260504212606 | 76 | 265 | 1.0 | 2.0 | 0.00 | 0.00 | 0.00 | 32 | 1019.5 |
| 20260504212104 | 76 | 312 | 0.0 | 2.0 | 0.00 | 0.00 | 0.00 | 33 | 1019.4 |
| 20260504211601 | 77 | 275 | 0.0 | 0.0 | 0.00 | 0.00 | 0.00 | 32 | 1019.3 |
| 20260504211057 | 77 | 255 | 0.0 | 0.0 | 0.00 | 0.00 | 0.00 | 30 | 1019.4 |
| 20260504210555 | 77 | 241 | 3.0 | 3.0 | 0.00 | 0.00 | 0.00 | 30 | 1019.6 |
| 20260504210051 | 77 | 241 | 2.0 | 2.0 | 0.00 | 0.00 | 0.00 | 30 | 1019.6 |
| 20260504205549 | 76 | 208 | 2.0 | 2.0 | 0.00 | 0.00 | 0.00 | 31 | 1019.6 |
| 20260504205047 | 77 | 274 | 0.0 | 2.0 | 0.00 | 0.00 | 0.00 | 31 | 1019.6 |
| 20260504204544 | 77 | 227 | 2.0 | 3.0 | 0.00 | 0.00 | 0.00 | 31 | 1019.6 |
| 20260504204043 | 77 | 249 | 3.0 | 3.0 | 0.00 | 0.00 | 0.00 | 31 | 1019.7 |
| 20260504203541 | 78 | 196 | 2.0 | 3.0 | 0.00 | 0.00 | 0.00 | 28 | 1020.0 |
| 20260504203038 | 78 | 146 | 3.0 | 3.0 | 0.00 | 0.00 | 0.00 | 26 | 1019.7 |
| 20260504202533 | 77 | 252 | 2.0 | 3.0 | 0.00 | 0.00 | 0.00 | 27 | 1020.1 |
| 20260504202031 | 77 | 244 | 2.0 | 3.0 | 0.00 | 0.00 | 0.00 | 28 | 1020.1 |
| 20260504201528 | 77 | 132 | 2.0 | 3.0 | 0.00 | 0.00 | 0.00 | 29 | 1020.1 |
| 20260504201026 | 76 | 266 | 3.0 | 5.0 | 0.00 | 0.00 | 0.00 | 31 | 1019.9 |
| 20260504200521 | 76 | 245 | 3.0 | 5.0 | 0.00 | 0.00 | 0.00 | 31 | 1020.1 |
| 20260504200019 | 76 | 262 | 1.0 | 2.0 | 0.00 | 0.00 | 0.00 | 31 | 1020.1 |
| 20260504195514 | 77 | 275 | 0.0 | 0.0 | 0.00 | 0.00 | 0.00 | 29 | 1020.2 |
| 20260504195011 | 77 | 251 | 1.0 | 5.0 | 0.00 | 0.00 | 0.00 | 30 | 1020.3 |
| 20260504194508 | 76 | 242 | 2.0 | 3.0 | 0.00 | 0.00 | 0.00 | 29 | 1020.2 |
| 20260504194003 | 76 | 274 | 0.0 | 0.0 | 0.00 | 0.00 | 0.00 | 32 | 1020.4 |
| 20260504193500 | 76 | 217 | 2.0 | 3.0 | 0.00 | 0.00 | 0.00 | 34 | 1020.6 |
| 20260504192959 | 77 | 245 | 2.0 | 5.0 | 0.00 | 0.00 | 0.00 | 31 | 1020.7 |
| 20260504192456 | 77 | 249 | 0.0 | 0.0 | 0.00 | 0.00 | 0.00 | 30 | 1020.6 |
| 20260504191955 | 76 | 266 | 1.0 | 2.0 | 0.00 | 0.00 | 0.00 | 31 | 1020.8 |
| 20260504191452 | 76 | 239 | 4.0 | 5.0 | 0.00 | 0.00 | 0.00 | 31 | 1020.8 |
| 20260504190947 | 76 | 267 | 2.0 | 2.0 | 0.00 | 0.00 | 0.00 | 33 | 1021.0 |
| 20260504190443 | 76 | 220 | 3.0 | 3.0 | 0.00 | 0.00 | 0.00 | 31 | 1021.0 |
| 20260504185940 | 76 | 187 | 5.0 | 7.0 | 0.00 | 0.00 | 0.00 | 28 | 1021.0 |
| 20260504185438 | 76 | 128 | 4.0 | 5.0 | 0.00 | 0.00 | 0.00 | 30 | 1021.0 |
| 20260504184934 | 76 | 244 | 2.0 | 3.0 | 0.00 | 0.00 | 0.00 | 31 | 1021.1 |
| 20260504184429 | 76 | 165 | 0.0 | 0.0 | 0.00 | 0.00 | 0.00 | 32 | 1021.0 |
| 20260504183925 | 76 | 216 | 3.0 | 3.0 | 0.00 | 0.00 | 0.00 | 32 | 1021.3 |
| 20260504183423 | 76 | 267 | 0.0 | 0.0 | 0.00 | 0.00 | 0.00 | 32 | 1021.2 |
| 20260504182921 | 76 | 206 | 0.0 | 0.0 | 0.00 | 0.00 | 0.00 | 31 | 1021.3 |
| 20260504182417 | 75 | 280 | 0.0 | 0.0 | 0.00 | 0.00 | 0.00 | 32 | 1021.5 |
| 20260504181914 | 76 | 204 | 2.0 | 3.0 | 0.00 | 0.00 | 0.00 | 33 | 1021.5 |
| 20260504181412 | 75 | 212 | 0.0 | 0.0 | 0.00 | 0.00 | 0.00 | 37 | 1021.5 |
| 20260504180910 | 74 | 339 | 3.0 | 3.0 | 0.00 | 0.00 | 0.00 | 36 | 1021.7 |
| 20260504180409 | 75 | 299 | 1.0 | 2.0 | 0.00 | 0.00 | 0.00 | 34 | 1021.8 |
| 20260504175907 | 74 | 271 | 0.0 | 0.0 | 0.00 | 0.00 | 0.00 | 37 | 1021.8 |
| 20260504175403 | 75 | 254 | 0.0 | 0.0 | 0.00 | 0.00 | 0.00 | 32 | 1021.9 |
| 20260504174901 | 75 | 269 | 1.0 | 2.0 | 0.00 | 0.00 | 0.00 | 35 | 1021.9 |
| 20260504174358 | 75 | 130 | 3.0 | 3.0 | 0.00 | 0.00 | 0.00 | 33 | 1021.8 |
| 20260504173855 | 75 | 241 | 0.0 | 0.0 | 0.00 | 0.00 | 0.00 | 35 | 1022.0 |
| 20260504173352 | 75 | 247 | 0.0 | 0.0 | 0.00 | 0.00 | 0.00 | 35 | 1022.2 |
| 20260504172849 | 75 | 263 | 0.0 | 0.0 | 0.00 | 0.00 | 0.00 | 36 | 1022.0 |
| 20260504172346 | 75 | 233 | 0.0 | 0.0 | 0.00 | 0.00 | 0.00 | 34 | 1022.2 |
| 20260504171841 | 74 | 264 | 0.0 | 0.0 | 0.00 | 0.00 | 0.00 | 35 | 1022.0 |
| 20260504171339 | 74 | 311 | 0.0 | 0.0 | 0.00 | 0.00 | 0.00 | 36 | 1022.3 |
| 20260504170836 | 75 | 303 | 0.0 | 0.0 | 0.00 | 0.00 | 0.00 | 36 | 1022.4 |
| 20260504170332 | 75 | 303 | 0.0 | 0.0 | 0.00 | 0.00 | 0.00 | 35 | 1022.3 |
| 20260504160251 | 70 | 305 | 0.0 | 0.0 | 0.00 | 0.00 | 0.00 | 41 | 1023.0 |
| 20260504150716 | 68 | 257 | 2.0 | 3.0 | 0.00 | 0.00 | 0.00 | 46 | 1023.7 |
| 20260504150213 | 67 | 264 | 0.0 | 2.0 | 0.00 | 0.00 | 0.00 | 45 | 1023.5 |
| 20260504141142 | 64 | 271 | 2.0 | 2.0 | 0.00 | 0.00 | 0.00 | 56 | 1024.0 |
| 20260504140639 | 64 | 265 | 0.0 | 0.0 | 0.00 | 0.00 | 0.00 | 52 | 1023.7 |
| 20260504140134 | 63 | 263 | 0.0 | 0.0 | 0.00 | 0.00 | 0.00 | 54 | 1023.9 |
| 20260504130603 | 54 | 268 | 0.0 | 0.0 | 0.00 | 0.00 | 0.00 | 73 | 1023.5 |
| 20260504110451 | 46 | 267 | 0.0 | 0.0 | 0.00 | 0.00 | 0.00 | 85 | 1022.9 |
| 20260504100413 | 47 | 267 | 0.0 | 0.0 | 0.00 | 0.00 | 0.00 | 84 | 1023.0 |
| 20260504081806 | 48 | 267 | 0.0 | 0.0 | 0.00 | 0.00 | 0.00 | 80 | 1023.0 |
| 20260504081303 | 48 | 267 | 0.0 | 0.0 | 0.00 | 0.00 | 0.00 | 80 | 1022.9 |
| 20260504080759 | 49 | 267 | 0.0 | 0.0 | 0.00 | 0.00 | 0.00 | 80 | 1023.0 |
| 20260504080255 | 49 | 267 | 0.0 | 0.0 | 0.00 | 0.00 | 0.00 | 80 | 1023.1 |
| 20260504070223 | 50 | 267 | 0.0 | 0.0 | 0.00 | 0.00 | 0.00 | 79 | 1023.6 |
| 20260504060143 | 51 | 267 | 0.0 | 0.0 | 0.00 | 0.00 | 0.00 | 78 | 1023.2 |